Location: A�t �Alizem
(31.2076°N, 8.7872°W)
Time: 06:42:56
(UTC+00:00)

Okean-O - Pass Details

Date: 27 November 2020
Orbit: 639 x 640 km, 98.2° (Epoch: 25 January)

Event Time Altitude Azimuth Distance (km) Brightness Sun altitude
Rises 19:33:28 0° 175° (S) 2,926 6.1 -25.4°
Reaches altitude 10° 19:35:41 10° 180° (S) 2,021 5.3 -25.9°
Maximum altitude 19:40:01 58° 259° (W) 745 3.1 -26.8°
Drops below altitude 10° 19:44:23 10° 339° (NNW) 2,034 5.3 -27.7°
Sets 19:46:38 0° 343° (NNW) 2,947 6.1 -28.2°
